Terug naar catalogus

STARLINK-32021

ActiefCommunicatieVLEO
NORAD 60148·PAYLOAD·🇺🇸 United States

Gelanceerd Jun 27, 2024 vanaf Cape Canaveral Space Force Station

Loading…

Volgende Passages (komende 24 uur)

TLE

VersSource: CelesTrak SupGP

Epoch: Sep 15, 2026, 02:59 UTC

1 60148C 24120P   26258.12479167  .00025825  00000+0  83047-3 0  2582
2 60148  53.1582 148.6327 0001358  86.1565 135.8614 15.31688178    11

Volg STARLINK-32021 in realtime met AllMySat

Download on the App Store